sat.trackr.live / text

‹ back to catalog

STARLINK-4796

NORAD 53909 · 2022-119Z

PAYLOAD ACTIVE UNKNOWN

§ Identity

Operator
Country
US
Launch date
2022-09-24
Launch site
AFETR
Launch vehicle
Mass (kg)
RCS (m²)

Purposes: comms

External: N2YO · Heavens-Above · Gunter

§ Orbital elements

Epoch: 2026-05-24T22:45:34.090272Z

Period
95.44 min
Inclination
53.2122°
Eccentricity
0.0001358
Mean motion
15.08829450 rev/d
Perigee alt
538.8 km
Apogee alt
540.7 km
Semi-major
6,917.9 km
B*
1.8589e-6
RAAN
332.0427°
Arg perigee
86.4703°
Mean anomaly
273.6444°
Rev number
20,333

§ Raw data

STARLINK-47961 53909U 22119Z   26144.94831123 -.00000258  00000+0  18589-5 0  99902 53909  53.2122 332.0427 0001358  86.4703 273.6444 15.08829450203332

JSON: /api/v1/satellites/53909 · /tle

For live sub-satellite position, see the globe view (requires WebGL).

§ Visibility from observer

Set your observer location to see the next 7 days of passes ≥ 10°. The values pass through the URL so the page stays shareable.

No JS? Fill the form by hand. The geolocation button needs JavaScript.